OPS 4682 DEB, 19185

Orbit data source: Space-Track

OPS 4682 DEB, 19185 is space debris in LEO originally from a launch on Sat, 03 Apr 1965 UTC launched from the Air Force Western Test Range (AFWTR). Debris objects in space refer to the collection of defunct objects orbiting the Earth. Examples of debris include non-operational satellites, rocket bodies, and fragments generated from explosions, collisions, or faulty payload assembly.

Loading next visibility...
Identifier
19185, 1965-027AR
Orbit
LEO
Country
Flag of USUS
Related business
Manufacturer
Unknown
Mission
Spacecraft
Bus & Motor
Unknown
Mass
Unknown
Launch date (UTC)
1965-04-03 (61 years ago)
Launch vehicle
Unknown
Launch site
Air Force Western Test Range (AFWTR)
Object type
Payload
Rocket body
Debris
Shape & HBR
Unknown shape, 0.1 m
Radar Cross Section
Small (<0.1 m²)

Expand to show TLE details & history
Last TLE update: 9 hours ago

TLE from 9 hours ago
0 OPS 4682 DEB
1 19185U 65027AR  25293.20407282  .00000525  00000-0  17770-2 0  9996
2 19185  90.2497 358.9744 0036097 347.0987  68.6491 12.97561064918980
Epoch: 2025-10-20T04:53Z
TLE epoch observation values (Epoch: 2025-10-20T04:53:51.891Z)
Latitude
56.2237°
Longitude
-103.77302°
Altitude
1,271.124 km
Speed
7.23 km/s
True Right ascension
23h 54m 24s
True Declination
56° 04' 31"
Sunlit
Object was in full shadow at epoch
Visualization orbit readout
Latitude
Unknown
Longitude
Unknown
Altitude
Unknown
Speed
Unknown
Apparent Right ascension
Unknown
Apparent Declination
Unknown
Sunlit
N/A
Visualization observer readout
Local Sidereal Time
08:28:38
Azimuth
Unknown
Elevation
Unknown
Doppler factor
Unknown
Orbital elements
Apogee altitude
1,296.391 km
Perigee altitude
1,241.185 km
Semi-major axis
7,646.925 km
Eccentricity
0.00361
Inclination
90.2497°
RAAN
358.9744°
Arg. of periapsis
347.0987°
True anomaly
69.03498°
Mean anomaly
68.6491°
Eccentric anomaly
68.84198°
Mean motion
3.24573 °/min
Orbital period
110.91 mins
BSTAR
0.001777
Loading maneuver chart data...
Computing Atmospheric mass density...
Loading historical data...
Loading historical data...
Loading historical data...
Loading historical data...
Loading historical data...
Loading historical data...
Loading historical data...

Documentation

Showing up to 5 results
|